When you browse on this site, cookies collect data to enhance your experience and personalize the content and advertising you see.
Visit our Privacy Policy to learn more. By continuing to use the site, you agree to this use of cookies and data.
EN

Hourly Weather Goiania

Today, 19 September, Saturday

Time Temperature Precipitation Wind Pressure Humidity
00:00 +27°C° 0 mm 1 mps 698 mmHg 26%
01:00 +27°C° 0 mm 1 mps 698 mmHg 27%
02:00 +26°C° 0 mm 1 mps 697 mmHg 28%
03:00 +25°C° 0 mm 1 mps 697 mmHg 29%
04:00 +25°C° 0 mm 1 mps 697 mmHg 30%
05:00 +23°C° 0 mm 0 mps 697 mmHg 30%
06:00 +22°C° 0 mm 0 mps 697 mmHg 31%
07:00 +26°C° 0 mm 0 mps 698 mmHg 27%
08:00 +29°C° 0 mm 0 mps 699 mmHg 23%
09:00 +32°C° 0 mm 0 mps 700 mmHg 19%
10:00 +36°C° 0 mm 1 mps 700 mmHg 17%
11:00 +39°C° 0 mm 1 mps 700 mmHg 15%
12:00 +41°C° 0 mm 1 mps 700 mmHg 13%
13:00 +41°C° 0 mm 1 mps 699 mmHg 13%
14:00 +41°C° 0 mm 2 mps 698 mmHg 12%
15:00 +41°C° 0 mm 2 mps 697 mmHg 12%
16:00 +39°C° 0 mm 2 mps 697 mmHg 14%
17:00 +37°C° 0 mm 2 mps 697 mmHg 16%
18:00 +34°C° 0 mm 1 mps 696 mmHg 18%
19:00 +32°C° 0 mm 1 mps 697 mmHg 20%
20:00 +31°C° 0 mm 1 mps 697 mmHg 22%
21:00 +29°C° 0 mm 1 mps 698 mmHg 23%
22:00 +29°C° 0 mm 1 mps 698 mmHg 25%
23:00 +28°C° 0 mm 1 mps 698 mmHg 27%

Tomorrow, 20 September, Sunday

Time Temperature Precipitation Wind Pressure Humidity
00:00 +28°C° 0 mm 1 mps 698 mmHg 28%
01:00 +27°C° 0 mm 1 mps 697 mmHg 31%
02:00 +26°C° 0 mm 1 mps 697 mmHg 34%
03:00 +25°C° 0 mm 1 mps 697 mmHg 37%
04:00 +24°C° 0 mm 2 mps 697 mmHg 39%
05:00 +24°C° 0 mm 2 mps 697 mmHg 42%
06:00 +24°C° 0 mm 2 mps 697 mmHg 44%
07:00 +26°C° 0 mm 3 mps 698 mmHg 39%
08:00 +29°C° 0 mm 5 mps 699 mmHg 34%
09:00 +33°C° 0 mm 6 mps 700 mmHg 29%
10:00 +35°C° 0 mm 4 mps 700 mmHg 24%
11:00 +38°C° 0 mm 3 mps 699 mmHg 19%
12:00 +40°C° 0 mm 2 mps 699 mmHg 14%
13:00 +40°C° 0 mm 2 mps 698 mmHg 14%
14:00 +40°C° 0 mm 1 mps 697 mmHg 14%
15:00 +40°C° 0 mm 1 mps 697 mmHg 13%
16:00 +37°C° 0 mm 1 mps 696 mmHg 15%
17:00 +36°C° 0 mm 1 mps 696 mmHg 17%
18:00 +34°C° 0 mm 1 mps 696 mmHg 19%
19:00 +32°C° 0 mm 1 mps 696 mmHg 21%
20:00 +31°C° 0 mm 1 mps 696 mmHg 23%
21:00 +30°C° 0 mm 1 mps 697 mmHg 24%
22:00 +29°C° 0 mm 1 mps 697 mmHg 26%
23:00 +28°C° 0 mm 1 mps 697 mmHg 28%

Day after tomorrow, 21 September, Monday

Time Temperature Precipitation Wind Pressure Humidity
00:00 +27°C° 0 mm 1 mps 697 mmHg 29%
01:00 +26°C° 0 mm 2 mps 697 mmHg 34%
02:00 +25°C° 0 mm 2 mps 697 mmHg 39%
03:00 +24°C° 0 mm 2 mps 696 mmHg 44%
04:00 +24°C° 0 mm 3 mps 696 mmHg 44%
05:00 +24°C° 0 mm 3 mps 697 mmHg 45%
06:00 +24°C° 0 mm 3 mps 697 mmHg 46%
07:00 +27°C° 0 mm 3 mps 698 mmHg 38%
08:00 +29°C° 0 mm 4 mps 698 mmHg 31%
09:00 +33°C° 0 mm 4 mps 699 mmHg 24%
10:00 +36°C° 0 mm 4 mps 699 mmHg 20%
11:00 +38°C° 0 mm 3 mps 698 mmHg 17%
12:00 +42°C° 0 mm 3 mps 698 mmHg 14%
13:00 +40°C° 0 mm 3 mps 697 mmHg 14%
14:00 +40°C° 0 mm 3 mps 696 mmHg 15%
15:00 +39°C° 0 mm 3 mps 695 mmHg 16%
16:00 +37°C° 0 mm 3 mps 695 mmHg 18%
17:00 +36°C° 0 mm 3 mps 695 mmHg 20%
18:00 +35°C° 0 mm 2 mps 695 mmHg 22%
19:00 +32°C° 0.1 mm 2 mps 696 mmHg 25%
20:00 +31°C° 0.1 mm 1 mps 697 mmHg 27%
21:00 +30°C° 0.1 mm 1 mps 697 mmHg 29%
22:00 +28°C° 0 mm 1 mps 697 mmHg 36%
23:00 +27°C° 0 mm 2 mps 697 mmHg 44%

22 September, Tuesday

Time Temperature Precipitation Wind Pressure Humidity
00:00 +25°C° 0 mm 3 mps 697 mmHg 51%
01:00 +25°C° 0 mm 3 mps 697 mmHg 54%
02:00 +25°C° 0 mm 3 mps 697 mmHg 57%
03:00 +23°C° 0 mm 4 mps 697 mmHg 60%
04:00 +23°C° 0 mm 4 mps 697 mmHg 62%
05:00 +23°C° 0 mm 4 mps 697 mmHg 64%
06:00 +22°C° 0 mm 4 mps 698 mmHg 67%
07:00 +25°C° 0 mm 4 mps 698 mmHg 61%
08:00 +26°C° 0 mm 3 mps 699 mmHg 55%
09:00 +28°C° 0 mm 3 mps 700 mmHg 48%
10:00 +30°C° 0 mm 3 mps 700 mmHg 40%
11:00 +34°C° 0 mm 3 mps 700 mmHg 32%
12:00 +37°C° 0 mm 2 mps 700 mmHg 23%
13:00 +37°C° 0 mm 2 mps 699 mmHg 24%
14:00 +37°C° 0 mm 2 mps 698 mmHg 24%
15:00 +36°C° 0 mm 2 mps 697 mmHg 24%
16:00 +35°C° 0 mm 2 mps 697 mmHg 26%
17:00 +33°C° 0 mm 1 mps 698 mmHg 28%
18:00 +31°C° 0 mm 1 mps 698 mmHg 31%
19:00 +29°C° 0 mm 2 mps 698 mmHg 41%
20:00 +27°C° 0 mm 3 mps 699 mmHg 51%
21:00 +25°C° 0 mm 5 mps 700 mmHg 62%
22:00 +25°C° 0.2 mm 5 mps 700 mmHg 67%
23:00 +23°C° 0.2 mm 5 mps 700 mmHg 72%

23 September, Wednesday

Time Temperature Precipitation Wind Pressure Humidity
00:00 +22°C° 0.2 mm 5 mps 700 mmHg 78%
01:00 +22°C° 0.5 mm 5 mps 700 mmHg 79%
02:00 +21°C° 0.5 mm 5 mps 700 mmHg 80%
03:00 +21°C° 0.5 mm 5 mps 700 mmHg 81%
04:00 +21°C° 0.1 mm 5 mps 700 mmHg 81%
05:00 +21°C° 0.1 mm 4 mps 700 mmHg 81%
06:00 +20°C° 0.1 mm 3 mps 700 mmHg 82%
07:00 +22°C° 0 mm 4 mps 701 mmHg 76%
08:00 +23°C° 0 mm 4 mps 702 mmHg 69%
09:00 +25°C° 0 mm 4 mps 702 mmHg 63%
10:00 +27°C° 0 mm 5 mps 702 mmHg 55%
11:00 +30°C° 0 mm 5 mps 702 mmHg 47%
12:00 +33°C° 0 mm 5 mps 702 mmHg 39%
13:00 +33°C° 0 mm 4 mps 701 mmHg 37%
14:00 +34°C° 0 mm 3 mps 700 mmHg 35%
15:00 +34°C° 0 mm 2 mps 699 mmHg 33%
16:00 +32°C° 0 mm 2 mps 699 mmHg 35%
17:00 +32°C° 0 mm 2 mps 699 mmHg 36%
18:00 +31°C° 0 mm 2 mps 699 mmHg 38%
19:00 +29°C° 0 mm 2 mps 699 mmHg 44%
20:00 +28°C° 0 mm 2 mps 700 mmHg 51%
21:00 +26°C° 0 mm 2 mps 700 mmHg 57%
22:00 +26°C° 0 mm 3 mps 700 mmHg 57%
23:00 +26°C° 0 mm 3 mps 700 mmHg 58%

24 September, Thursday

Time Temperature Precipitation Wind Pressure Humidity
00:00 +25°C° 0 mm 3 mps 700 mmHg 58%
01:00 +25°C° 0 mm 3 mps 700 mmHg 58%
02:00 +25°C° 0 mm 3 mps 699 mmHg 58%
03:00 +25°C° 0 mm 4 mps 699 mmHg 57%
04:00 +23°C° 0 mm 4 mps 699 mmHg 59%
05:00 +23°C° 0 mm 4 mps 699 mmHg 60%
06:00 +22°C° 0 mm 3 mps 699 mmHg 62%
07:00 +25°C° 0 mm 4 mps 700 mmHg 57%
08:00 +27°C° 0 mm 4 mps 701 mmHg 51%
09:00 +29°C° 0 mm 5 mps 701 mmHg 46%
10:00 +32°C° 0 mm 4 mps 701 mmHg 40%
11:00 +35°C° 0 mm 4 mps 701 mmHg 34%
12:00 +37°C° 0 mm 3 mps 701 mmHg 28%
13:00 +37°C° 0 mm 3 mps 700 mmHg 26%
14:00 +37°C° 0 mm 2 mps 700 mmHg 24%
15:00 +37°C° 0 mm 1 mps 699 mmHg 23%
16:00 +35°C° 0 mm 1 mps 699 mmHg 25%
17:00 +34°C° 0 mm 1 mps 698 mmHg 27%
18:00 +32°C° 0 mm 1 mps 698 mmHg 29%
19:00 +31°C° 0 mm 1 mps 699 mmHg 32%
20:00 +30°C° 0 mm 1 mps 699 mmHg 34%
21:00 +29°C° 0 mm 1 mps 699 mmHg 37%
22:00 +28°C° 0 mm 2 mps 699 mmHg 40%
23:00 +27°C° 0 mm 2 mps 699 mmHg 42%
Show more